Time,TemperatureF,DewpointF,PressureIn,WindDirection,WindDirectionDegrees,WindSpeedMPH,WindSpeedGustMPH,Humidity,HourlyPrecipIn,Conditions,Clouds,dailyrainin,SoftwareType,DateUTC
2013-12-02 00:01:00,34.3,33.8,29.99,NNE,22,0.0,0.0,98,0.00,,,0.13,VWS V14.00,2013-12-02 05:01:00,
2013-12-02 00:06:00,34.2,33.7,29.99,NNE,22,0.0,0.0,98,0.00,,,0.00,VWS V14.00,2013-12-02 05:06:00,
2013-12-02 00:11:00,34.1,33.6,29.99,NNE,21,0.0,0.0,98,0.00,,,0.00,VWS V14.00,2013-12-02 05:11:00,
2013-12-02 00:16:00,34.1,33.6,29.99,NNE,21,0.0,0.0,98,0.00,,,0.00,VWS V14.00,2013-12-02 05:16:00,
2013-12-02 00:21:00,34.4,34.2,29.99,NE,46,0.0,0.0,99,0.00,,,0.00,VWS V14.00,2013-12-02 05:21:00,
2013-12-02 00:26:00,34.4,34.2,29.98,NE,47,0.0,0.0,99,0.00,,,0.00,VWS V14.00,2013-12-02 05:26:00,
2013-12-02 00:31:00,34.5,34.2,29.98,NW,321,0.0,1.0,99,0.00,,,0.00,VWS V14.00,2013-12-02 05:31:00,
2013-12-02 00:36:00,34.5,34.2,29.99,NE,38,1.0,3.0,99,0.00,,,0.00,VWS V14.00,2013-12-02 05:36:00,
2013-12-02 00:41:00,34.9,34.7,29.99,NNE,30,1.0,2.0,99,0.00,,,0.00,VWS V14.00,2013-12-02 05:41:00,
2013-12-02 00:46:00,35.0,34.8,29.99,NE,53,0.0,1.0,99,0.00,,,0.00,VWS V14.00,2013-12-02 05:46:00,
2013-12-02 00:51:00,35.1,34.8,29.99,ENE,57,0.0,1.0,99,0.00,,,0.00,VWS V14.00,2013-12-02 05:51:00,
2013-12-02 00:56:00,35.1,34.8,29.99,ENE,57,0.0,0.0,99,0.00,,,0.00,VWS V14.00,2013-12-02 05:56:00,
2013-12-02 01:01:00,35.1,34.8,29.99,NE,54,0.0,0.0,99,0.00,,,0.00,VWS V14.00,2013-12-02 06:01:00,
2013-12-02 01:05:00,35.0,34.8,29.99,ENE,64,1.0,1.0,99,0.00,,,0.00,VWS V14.00,2013-12-02 06:05:00,
2013-12-02 01:10:00,35.1,34.8,29.99,NE,39,0.0,3.0,99,0.00,,,0.00,VWS V14.00,2013-12-02 06:10:00,
2013-12-02 01:15:00,35.0,34.8,29.99,ENE,66,0.0,1.0,99,0.00,,,0.00,VWS V14.00,2013-12-02 06:15:00,
2013-12-02 01:20:00,35.0,34.8,29.99,NE,46,0.0,3.0,99,0.00,,,0.00,VWS V14.00,2013-12-02 06:20:00,
2013-12-02 01:25:00,35.0,34.8,29.99,NW,310,0.0,1.0,99,0.00,,,0.00,VWS V14.00,2013-12-02 06:25:00,
2013-12-02 01:30:00,35.0,34.8,29.99,NNW,348,0.0,1.0,99,0.00,,,0.00,VWS V14.00,2013-12-02 06:30:00,
2013-12-02 01:35:00,34.9,34.7,29.99,NNW,348,0.0,1.0,99,0.00,,,0.00,VWS V14.00,2013-12-02 06:35:00,
2013-12-02 01:40:00,35.0,34.8,29.99,North,350,0.0,2.0,99,0.00,,,0.00,VWS V14.00,2013-12-02 06:40:00,
2013-12-02 01:45:00,34.9,34.7,29.99,NE,50,1.0,3.0,99,0.00,,,0.00,VWS V14.00,2013-12-02 06:45:00,
2013-12-02 01:50:00,34.9,34.7,29.99,North,11,3.0,3.0,99,0.00,,,0.00,VWS V14.00,2013-12-02 06:50:00,
2013-12-02 01:55:00,34.9,34.7,29.98,NNE,12,3.0,4.0,99,0.00,,,0.00,VWS V14.00,2013-12-02 06:55:00,
2013-12-02 02:00:00,34.8,34.5,29.99,NNW,342,4.0,4.0,99,0.00,,,0.00,VWS V14.00,2013-12-02 07:00:00,
2013-12-02 02:05:00,34.8,34.3,29.99,NE,38,3.0,4.0,98,0.00,,,0.00,VWS V14.00,2013-12-02 07:05:00,
2013-12-02 02:10:00,34.7,34.2,29.99,NNE,31,1.0,4.0,98,0.00,,,0.00,VWS V14.00,2013-12-02 07:10:00,
2013-12-02 02:15:00,34.7,34.2,29.98,NE,48,3.0,5.0,98,0.00,,,0.00,VWS V14.00,2013-12-02 07:15:00,
2013-12-02 02:20:00,34.7,34.2,29.98,NNE,33,2.0,5.0,98,0.00,,,0.00,VWS V14.00,2013-12-02 07:20:00,
2013-12-02 02:25:00,34.8,34.5,29.98,NNE,22,2.0,4.0,99,0.00,,,0.00,VWS V14.00,2013-12-02 07:25:00,
2013-12-02 02:30:00,34.8,34.5,29.98,NNW,343,1.0,2.0,99,0.00,,,0.00,VWS V14.00,2013-12-02 07:30:00,
2013-12-02 02:35:00,34.8,34.5,29.98,North,11,2.0,3.0,99,0.00,,,0.00,VWS V14.00,2013-12-02 07:35:00,
2013-12-02 02:40:00,34.8,34.5,29.99,ENE,63,1.0,2.0,99,0.00,,,0.00,VWS V14.00,2013-12-02 07:40:00,
2013-12-02 02:45:00,34.8,34.5,29.98,NNE,29,3.0,5.0,99,0.00,,,0.00,VWS V14.00,2013-12-02 07:45:00,
2013-12-02 02:50:00,34.8,34.5,29.98,NE,43,2.0,5.0,99,0.00,,,0.00,VWS V14.00,2013-12-02 07:50:00,
2013-12-02 02:55:00,34.8,34.5,29.98,NNE,28,1.0,4.0,99,0.00,,,0.00,VWS V14.00,2013-12-02 07:55:00,
2013-12-02 03:00:00,34.8,34.5,29.98,NNE,15,2.0,4.0,99,0.00,,,0.00,VWS V14.00,2013-12-02 08:00:00,
2013-12-02 03:05:00,34.7,34.5,29.98,NW,313,2.0,3.0,99,0.00,,,0.00,VWS V14.00,2013-12-02 08:05:00,
2013-12-02 03:10:00,34.7,34.5,29.98,NE,38,4.0,4.0,99,0.00,,,0.00,VWS V14.00,2013-12-02 08:10:00,
2013-12-02 03:15:00,34.7,34.5,29.98,NE,43,2.0,6.0,99,0.00,,,0.00,VWS V14.00,2013-12-02 08:15:00,
2013-12-02 03:20:00,34.7,34.5,29.98,NNE,32,2.0,4.0,99,0.00,,,0.00,VWS V14.00,2013-12-02 08:20:00,
2013-12-02 03:25:00,34.7,34.5,29.97,NE,38,4.0,5.0,99,0.00,,,0.00,VWS V14.00,2013-12-02 08:25:00,
2013-12-02 03:30:00,34.6,34.3,29.97,NW,320,0.0,3.0,99,0.00,,,0.00,VWS V14.00,2013-12-02 08:30:00,
2013-12-02 03:35:00,34.7,34.5,29.97,NE,51,4.0,4.0,99,0.00,,,0.00,VWS V14.00,2013-12-02 08:35:00,
2013-12-02 03:40:00,34.7,34.5,29.97,NNE,20,1.0,3.0,99,0.00,,,0.00,VWS V14.00,2013-12-02 08:40:00,
2013-12-02 03:45:00,34.8,34.5,29.97,NE,43,1.0,4.0,99,0.00,,,0.00,VWS V14.00,2013-12-02 08:45:00,
2013-12-02 03:50:00,34.8,34.5,29.97,ENE,68,0.0,4.0,99,0.00,,,0.00,VWS V14.00,2013-12-02 08:50:00,
2013-12-02 03:55:00,34.9,34.7,29.97,NNE,28,1.0,4.0,99,0.00,,,0.00,VWS V14.00,2013-12-02 08:55:00,
2013-12-02 04:00:00,34.8,34.5,29.97,NE,36,3.0,4.0,99,0.00,,,0.00,VWS V14.00,2013-12-02 09:00:00,
2013-12-02 04:05:00,34.9,34.7,29.97,NE,45,3.0,6.0,99,0.00,,,0.00,VWS V14.00,2013-12-02 09:05:00,
2013-12-02 04:10:00,34.9,34.7,29.97,NNE,19,1.0,5.0,99,0.00,,,0.00,VWS V14.00,2013-12-02 09:10:00,
2013-12-02 04:15:00,35.0,34.8,29.97,North,5,4.0,5.0,99,0.00,,,0.00,VWS V14.00,2013-12-02 09:15:00,
2013-12-02 04:20:00,35.1,34.8,29.97,East,89,1.0,4.0,99,0.00,,,0.00,VWS V14.00,2013-12-02 09:20:00,
2013-12-02 04:25:00,35.1,34.8,29.97,NE,44,0.0,2.0,99,0.00,,,0.00,VWS V14.00,2013-12-02 09:25:00,
2013-12-02 04:30:00,35.1,34.8,29.97,NE,44,2.0,4.0,99,0.00,,,0.00,VWS V14.00,2013-12-02 09:30:00,
2013-12-02 04:35:00,35.1,34.8,29.96,NNW,331,2.0,3.0,99,0.00,,,0.00,VWS V14.00,2013-12-02 09:35:00,
2013-12-02 04:40:00,35.2,35.0,29.97,NE,38,2.0,4.0,99,0.00,,,0.00,VWS V14.00,2013-12-02 09:40:00,
2013-12-02 04:45:00,35.2,35.0,29.97,ENE,66,2.0,6.0,99,0.00,,,0.00,VWS V14.00,2013-12-02 09:45:00,
2013-12-02 04:50:00,35.2,35.0,29.97,NNE,32,3.0,5.0,99,0.00,,,0.00,VWS V14.00,2013-12-02 09:50:00,
2013-12-02 04:55:00,35.2,35.0,29.97,NNE,26,2.0,3.0,99,0.00,,,0.00,VWS V14.00,2013-12-02 09:55:00,
2013-12-02 05:00:00,35.2,35.0,29.97,NNE,17,5.0,6.0,99,0.00,,,0.00,VWS V14.00,2013-12-02 10:00:00,
2013-12-02 05:05:00,35.2,35.0,29.97,NE,51,2.0,4.0,99,0.00,,,0.00,VWS V14.00,2013-12-02 10:05:00,
2013-12-02 05:10:00,35.2,35.0,29.97,NNW,346,4.0,5.0,99,0.00,,,0.00,VWS V14.00,2013-12-02 10:10:00,
2013-12-02 05:15:00,35.2,35.0,29.97,NE,39,0.0,3.0,99,0.00,,,0.00,VWS V14.00,2013-12-02 10:15:00,
2013-12-02 05:20:00,35.2,35.0,29.97,NNE,26,0.0,2.0,99,0.00,,,0.00,VWS V14.00,2013-12-02 10:20:00,
2013-12-02 05:25:00,35.2,35.0,29.97,NE,38,1.0,1.0,99,0.00,,,0.00,VWS V14.00,2013-12-02 10:25:00,
2013-12-02 05:30:00,35.3,35.0,29.97,NE,47,0.0,1.0,99,0.00,,,0.00,VWS V14.00,2013-12-02 10:30:00,
2013-12-02 05:35:00,35.3,35.0,29.97,NE,38,0.0,3.0,99,0.00,,,0.00,VWS V14.00,2013-12-02 10:35:00,
2013-12-02 05:40:00,35.3,35.0,29.97,NE,40,2.0,3.0,99,0.00,,,0.00,VWS V14.00,2013-12-02 10:40:00,
2013-12-02 05:45:00,35.4,35.2,29.97,NE,55,1.0,4.0,99,0.00,,,0.00,VWS V14.00,2013-12-02 10:45:00,
2013-12-02 05:50:00,35.4,35.2,29.97,ENE,57,1.0,2.0,99,0.00,,,0.00,VWS V14.00,2013-12-02 10:50:00,
2013-12-02 05:55:00,35.4,35.2,29.97,NNW,332,0.0,0.0,99,0.00,,,0.00,VWS V14.00,2013-12-02 10:55:00,
2013-12-02 06:00:00,35.4,35.2,29.97,NE,49,0.0,0.0,99,0.00,,,0.00,VWS V14.00,2013-12-02 11:00:00,
2013-12-02 06:05:00,35.4,35.2,29.97,NNE,33,0.0,0.0,99,0.00,,,0.00,VWS V14.00,2013-12-02 11:05:00,
2013-12-02 06:10:00,35.4,35.2,29.97,NNE,24,0.0,1.0,99,0.00,,,0.00,VWS V14.00,2013-12-02 11:10:00,
2013-12-02 06:15:00,35.4,35.2,29.97,NE,44,0.0,2.0,99,0.00,,,0.00,VWS V14.00,2013-12-02 11:15:00,
2013-12-02 06:20:00,35.5,35.2,29.97,NNE,22,1.0,1.0,99,0.00,,,0.00,VWS V14.00,2013-12-02 11:20:00,
2013-12-02 06:25:00,35.5,35.2,29.97,North,351,1.0,1.0,99,0.00,,,0.00,VWS V14.00,2013-12-02 11:25:00,
2013-12-02 06:30:00,35.5,35.2,29.97,NE,53,0.0,3.0,99,0.00,,,0.00,VWS V14.00,2013-12-02 11:30:00,
2013-12-02 06:34:00,35.5,35.2,29.97,NE,39,1.0,2.0,99,0.00,,,0.00,VWS V14.00,2013-12-02 11:34:00,
2013-12-02 06:39:00,35.5,35.2,29.97,NNE,12,0.0,1.0,99,0.00,,,0.00,VWS V14.00,2013-12-02 11:39:00,
2013-12-02 06:44:00,35.5,35.2,29.97,NE,50,0.0,2.0,99,0.00,,,0.00,VWS V14.00,2013-12-02 11:44:00,
2013-12-02 06:49:00,35.5,35.2,29.97,ENE,62,0.0,0.0,99,0.00,,,0.00,VWS V14.00,2013-12-02 11:49:00,
2013-12-02 06:54:00,35.5,35.2,29.97,ENE,63,0.0,1.0,99,0.00,,,0.00,VWS V14.00,2013-12-02 11:54:00,
2013-12-02 06:59:00,35.5,35.2,29.97,East,86,0.0,1.0,99,0.00,,,0.00,VWS V14.00,2013-12-02 11:59:00,
2013-12-02 07:04:00,35.5,35.2,29.96,ENE,59,1.0,2.0,99,0.00,,,0.00,VWS V14.00,2013-12-02 12:04:00,
2013-12-02 07:09:00,35.6,35.3,29.97,ENE,73,0.0,1.0,99,0.00,,,0.00,VWS V14.00,2013-12-02 12:09:00,
2013-12-02 07:14:00,35.6,35.3,29.97,NE,51,0.0,1.0,99,0.00,,,0.00,VWS V14.00,2013-12-02 12:14:00,
2013-12-02 07:19:00,35.6,35.3,29.96,NNE,13,2.0,3.0,99,0.00,,,0.00,VWS V14.00,2013-12-02 12:19:00,
2013-12-02 07:24:00,35.6,35.3,29.97,NNE,30,0.0,1.0,99,0.00,,,0.00,VWS V14.00,2013-12-02 12:24:00,
2013-12-02 07:29:00,35.6,35.3,29.97,NE,47,1.0,2.0,99,0.00,,,0.00,VWS V14.00,2013-12-02 12:29:00,
2013-12-02 07:34:00,35.6,35.3,29.96,ENE,73,2.0,3.0,99,0.00,,,0.00,VWS V14.00,2013-12-02 12:34:00,
2013-12-02 07:39:00,35.6,35.3,29.97,NE,55,1.0,2.0,99,0.00,,,0.00,VWS V14.00,2013-12-02 12:39:00,
2013-12-02 07:44:00,35.6,35.3,29.97,NE,56,1.0,1.0,99,0.00,,,0.00,VWS V14.00,2013-12-02 12:44:00,
2013-12-02 07:49:00,35.7,35.5,29.97,NE,44,1.0,3.0,99,0.00,,,0.00,VWS V14.00,2013-12-02 12:49:00,
2013-12-02 07:54:00,35.7,35.5,29.97,NE,38,2.0,2.0,99,0.00,,,0.00,VWS V14.00,2013-12-02 12:54:00,
2013-12-02 07:59:00,35.7,35.5,29.97,NNE,23,1.0,2.0,99,0.00,,,0.00,VWS V14.00,2013-12-02 12:59:00,
2013-12-02 08:04:00,35.7,35.5,29.97,NNW,334,0.0,0.0,99,0.00,,,0.00,VWS V14.00,2013-12-02 13:04:00,
2013-12-02 08:09:00,35.8,35.5,29.97,NE,55,0.0,0.0,99,0.00,,,0.00,VWS V14.00,2013-12-02 13:09:00,
2013-12-02 08:14:00,35.9,35.7,29.97,East,85,0.0,1.0,99,0.00,,,0.00,VWS V14.00,2013-12-02 13:14:00,
2013-12-02 08:19:00,36.0,35.8,29.98,East,86,0.0,0.0,99,0.00,,,0.00,VWS V14.00,2013-12-02 13:19:00,
2013-12-02 08:24:00,36.1,35.8,29.98,NE,39,0.0,2.0,99,0.00,,,0.00,VWS V14.00,2013-12-02 13:24:00,
2013-12-02 08:29:00,36.0,35.8,29.98,NE,43,0.0,1.0,99,0.00,,,0.00,VWS V14.00,2013-12-02 13:29:00,
2013-12-02 08:34:00,36.1,35.8,29.98,NE,44,2.0,3.0,99,0.00,,,0.00,VWS V14.00,2013-12-02 13:34:00,
2013-12-02 08:39:00,36.0,35.8,29.98,NE,34,0.0,0.0,99,0.00,,,0.00,VWS V14.00,2013-12-02 13:39:00,
2013-12-02 08:44:00,36.1,35.8,29.97,NE,53,0.0,0.0,99,0.00,,,0.00,VWS V14.00,2013-12-02 13:44:00,
2013-12-02 08:49:00,36.3,36.0,29.98,ENE,76,0.0,0.0,99,0.00,,,0.00,VWS V14.00,2013-12-02 13:49:00,
2013-12-02 08:54:00,36.3,36.0,29.98,NNE,20,2.0,2.0,99,0.00,,,0.00,VWS V14.00,2013-12-02 13:54:00,
2013-12-02 08:59:00,36.3,36.0,29.97,NE,43,1.0,2.0,99,0.00,,,0.00,VWS V14.00,2013-12-02 13:59:00,
2013-12-02 09:04:00,36.3,36.0,29.97,NNE,14,0.0,1.0,99,0.00,,,0.00,VWS V14.00,2013-12-02 14:04:00,
2013-12-02 09:09:00,36.5,36.2,29.97,NNW,343,0.0,0.0,99,0.00,,,0.00,VWS V14.00,2013-12-02 14:09:00,
2013-12-02 09:14:00,36.6,36.3,29.98,NNE,21,2.0,4.0,99,0.00,,,0.00,VWS V14.00,2013-12-02 14:14:00,
2013-12-02 09:19:00,36.6,36.3,29.98,NNW,336,2.0,2.0,99,0.00,,,0.00,VWS V14.00,2013-12-02 14:19:00,
2013-12-02 09:24:00,36.9,36.7,29.98,NE,45,1.0,1.0,99,0.00,,,0.00,VWS V14.00,2013-12-02 14:24:00,
2013-12-02 09:29:00,37.3,37.0,29.98,NE,48,1.0,1.0,99,0.00,,,0.00,VWS V14.00,2013-12-02 14:29:00,
2013-12-02 09:34:00,37.4,37.2,29.98,NNE,15,0.0,0.0,99,0.00,,,0.00,VWS V14.00,2013-12-02 14:34:00,
2013-12-02 09:39:00,37.3,37.0,29.98,NE,34,0.0,2.0,99,0.00,,,0.00,VWS V14.00,2013-12-02 14:39:00,
2013-12-02 09:44:00,37.3,37.0,29.98,North,355,2.0,2.0,99,0.00,,,0.00,VWS V14.00,2013-12-02 14:44:00,
2013-12-02 09:49:00,37.5,37.2,29.98,NE,53,3.0,3.0,99,0.00,,,0.00,VWS V14.00,2013-12-02 14:49:00,
2013-12-02 09:54:00,37.2,37.0,29.97,NNW,336,0.0,0.0,99,0.00,,,0.00,VWS V14.00,2013-12-02 14:54:00,
2013-12-02 09:59:00,37.5,37.2,29.98,NE,40,0.0,0.0,99,0.00,,,0.00,VWS V14.00,2013-12-02 14:59:00,
2013-12-02 10:04:00,37.9,37.6,29.97,NE,51,0.0,1.0,99,0.00,,,0.00,VWS V14.00,2013-12-02 15:04:00,
2013-12-02 10:09:00,37.9,37.6,29.97,ENE,73,0.0,0.0,99,0.00,,,0.00,VWS V14.00,2013-12-02 15:09:00,
2013-12-02 10:14:00,38.1,37.8,29.97,NNE,30,0.0,1.0,99,0.00,,,0.00,VWS V14.00,2013-12-02 15:14:00,
2013-12-02 10:19:00,38.0,37.7,29.98,NW,307,0.0,2.0,99,0.00,,,0.00,VWS V14.00,2013-12-02 15:19:00,
2013-12-02 10:24:00,38.0,37.7,29.98,SW,226,0.0,0.0,99,0.00,,,0.00,VWS V14.00,2013-12-02 15:24:00,
2013-12-02 10:29:00,38.0,37.7,29.97,WNW,299,0.0,0.0,99,0.00,,,0.00,VWS V14.00,2013-12-02 15:29:00,
2013-12-02 10:34:00,38.4,38.1,29.97,NNE,31,0.0,0.0,99,0.00,,,0.00,VWS V14.00,2013-12-02 15:34:00,
2013-12-02 10:39:00,38.2,37.9,29.97,SE,142,0.0,0.0,99,0.00,,,0.00,VWS V14.00,2013-12-02 15:39:00,
2013-12-02 10:44:00,38.3,38.0,29.97,ENE,66,0.0,0.0,99,0.00,,,0.00,VWS V14.00,2013-12-02 15:44:00,
2013-12-02 10:49:00,38.3,38.0,29.96,ESE,109,0.0,0.0,99,0.00,,,0.00,VWS V14.00,2013-12-02 15:49:00,
2013-12-02 10:54:00,38.7,38.4,29.96,East,83,0.0,0.0,99,0.00,,,0.00,VWS V14.00,2013-12-02 15:54:00,
2013-12-02 10:59:00,39.2,38.9,29.96,East,83,0.0,0.0,99,0.00,,,0.00,VWS V14.00,2013-12-02 15:59:00,
2013-12-02 11:04:00,39.2,38.9,29.96,ENE,62,0.0,0.0,99,0.00,,,0.00,VWS V14.00,2013-12-02 16:04:00,
2013-12-02 11:09:00,39.2,38.9,29.96,ENE,61,0.0,0.0,99,0.00,,,0.00,VWS V14.00,2013-12-02 16:09:00,
2013-12-02 11:14:00,39.3,39.0,29.95,SE,132,0.0,0.0,99,0.00,,,0.00,VWS V14.00,2013-12-02 16:14:00,
2013-12-02 11:19:00,39.3,38.8,29.95,ENE,63,0.0,0.0,98,0.00,,,0.00,VWS V14.00,2013-12-02 16:19:00,
2013-12-02 11:24:00,39.3,38.8,29.95,SE,142,0.0,1.0,98,0.00,,,0.00,VWS V14.00,2013-12-02 16:24:00,
2013-12-02 11:29:00,39.1,38.6,29.95,East,100,0.0,0.0,98,0.00,,,0.00,VWS V14.00,2013-12-02 16:29:00,
2013-12-02 11:34:00,39.0,38.5,29.95,ESE,115,0.0,1.0,98,0.00,,,0.00,VWS V14.00,2013-12-02 16:34:00,
2013-12-02 11:39:00,39.2,38.7,29.94,ENE,64,1.0,1.0,98,0.00,,,0.00,VWS V14.00,2013-12-02 16:39:00,
2013-12-02 11:44:00,39.1,38.6,29.95,NE,51,1.0,2.0,98,0.00,,,0.00,VWS V14.00,2013-12-02 16:44:00,
2013-12-02 11:49:00,39.0,38.5,29.95,NE,55,0.0,2.0,98,0.00,,,0.00,VWS V14.00,2013-12-02 16:49:00,
2013-12-02 11:54:00,39.1,38.6,29.95,ENE,57,0.0,0.0,98,0.00,,,0.00,VWS V14.00,2013-12-02 16:54:00,
2013-12-02 11:59:00,39.2,38.7,29.94,WNW,294,0.0,0.0,98,0.00,,,0.00,VWS V14.00,2013-12-02 16:59:00,
2013-12-02 12:04:00,39.4,38.9,29.94,North,350,0.0,0.0,98,0.00,,,0.00,VWS V14.00,2013-12-02 17:04:00,
2013-12-02 12:09:00,39.5,39.0,29.94,NNE,33,1.0,2.0,98,0.00,,,0.00,VWS V14.00,2013-12-02 17:09:00,
2013-12-02 12:14:00,39.5,39.0,29.93,NNE,31,4.0,4.0,98,0.00,,,0.00,VWS V14.00,2013-12-02 17:14:00,
2013-12-02 12:19:00,39.4,38.9,29.93,NNE,26,0.0,2.0,98,0.00,,,0.00,VWS V14.00,2013-12-02 17:19:00,
2013-12-02 12:24:00,39.5,38.7,29.93,NE,54,0.0,1.0,97,0.00,,,0.00,VWS V14.00,2013-12-02 17:24:00,
2013-12-02 12:29:00,39.6,38.8,29.93,NNE,22,1.0,1.0,97,0.00,,,0.00,VWS V14.00,2013-12-02 17:29:00,
2013-12-02 12:34:00,39.7,38.9,29.93,NE,44,1.0,1.0,97,0.00,,,0.00,VWS V14.00,2013-12-02 17:34:00,
2013-12-02 12:38:00,39.8,39.0,29.92,NNE,21,0.0,0.0,97,0.00,,,0.00,VWS V14.00,2013-12-02 17:38:00,
2013-12-02 12:43:00,40.0,39.2,29.92,NNE,15,2.0,2.0,97,0.00,,,0.00,VWS V14.00,2013-12-02 17:43:00,
2013-12-02 12:48:00,40.2,39.4,29.93,NNE,32,0.0,3.0,97,0.01,,BKN080,0.01,VWS V14.00,2013-12-02 17:48:00,
2013-12-02 12:53:00,40.4,39.3,29.92,NNE,14,0.0,0.0,96,0.01,,BKN080,0.01,VWS V14.00,2013-12-02 17:53:00,
2013-12-02 12:58:00,40.6,39.5,29.92,ENE,74,2.0,3.0,96,0.01,,BKN080,0.01,VWS V14.00,2013-12-02 17:58:00,
2013-12-02 13:03:00,40.7,39.7,29.92,NNW,341,0.0,1.0,96,0.01,,OVC080,0.01,VWS V14.00,2013-12-02 18:03:00,
2013-12-02 13:08:00,40.9,39.6,29.92,NE,53,0.0,0.0,95,0.01,,OVC080,0.01,VWS V14.00,2013-12-02 18:08:00,
2013-12-02 13:13:00,41.3,40.0,29.91,NE,38,2.0,2.0,95,0.01,,OVC080,0.01,VWS V14.00,2013-12-02 18:13:00,
2013-12-02 13:18:00,41.3,39.7,29.91,NE,46,0.0,0.0,94,0.01,,OVC080,0.01,VWS V14.00,2013-12-02 18:18:00,
2013-12-02 13:23:00,41.5,39.6,29.91,NNW,342,3.0,3.0,93,0.01,,OVC080,0.01,VWS V14.00,2013-12-02 18:23:00,
2013-12-02 13:28:00,41.4,39.2,29.91,ENE,57,3.0,3.0,92,0.01,,OVC080,0.01,VWS V14.00,2013-12-02 18:28:00,
2013-12-02 13:33:00,41.4,39.5,29.91,NE,45,1.0,2.0,93,0.01,,OVC080,0.01,VWS V14.00,2013-12-02 18:33:00,
2013-12-02 13:38:00,41.5,39.3,29.91,NW,322,0.0,1.0,92,0.01,,OVC080,0.01,VWS V14.00,2013-12-02 18:38:00,
2013-12-02 13:43:00,41.7,39.5,29.91,NNW,336,1.0,1.0,92,0.01,,OVC080,0.01,VWS V14.00,2013-12-02 18:43:00,
2013-12-02 13:48:00,41.9,39.5,29.91,East,88,0.0,0.0,91,0.01,,OVC080,0.01,VWS V14.00,2013-12-02 18:48:00,
2013-12-02 13:53:00,42.2,39.5,29.91,NNE,24,1.0,1.0,90,0.00,,OVC080,0.01,VWS V14.00,2013-12-02 18:53:00,
2013-12-02 13:58:00,42.4,39.7,29.91,NNE,26,0.0,0.0,90,0.00,,OVC080,0.01,VWS V14.00,2013-12-02 18:58:00,
2013-12-02 14:03:00,42.8,40.1,29.91,ENE,78,0.0,0.0,90,0.00,,OVC080,0.01,VWS V14.00,2013-12-02 19:03:00,
2013-12-02 14:08:00,43.1,40.1,29.91,ENE,74,0.0,0.0,89,0.00,,OVC080,0.01,VWS V14.00,2013-12-02 19:08:00,
2013-12-02 14:13:00,43.4,40.4,29.91,SE,130,0.0,0.0,89,0.00,,OVC080,0.01,VWS V14.00,2013-12-02 19:13:00,
2013-12-02 14:18:00,43.9,40.6,29.91,East,98,0.0,0.0,88,0.00,,OVC080,0.01,VWS V14.00,2013-12-02 19:18:00,
2013-12-02 14:23:00,44.0,40.1,29.91,ENE,68,0.0,0.0,86,0.00,,OVC080,0.01,VWS V14.00,2013-12-02 19:23:00,
2013-12-02 14:28:00,43.9,40.0,29.90,ENE,66,0.0,0.0,86,0.00,,OVC080,0.01,VWS V14.00,2013-12-02 19:28:00,
2013-12-02 14:33:00,43.9,39.7,29.90,NE,45,2.0,4.0,85,0.00,,OVC080,0.01,VWS V14.00,2013-12-02 19:33:00,
2013-12-02 14:38:00,44.1,39.9,29.89,NNW,329,0.0,0.0,85,0.00,,OVC080,0.01,VWS V14.00,2013-12-02 19:38:00,
2013-12-02 14:43:00,44.3,39.8,29.89,NE,45,0.0,4.0,84,0.00,,OVC080,0.01,VWS V14.00,2013-12-02 19:43:00,
2013-12-02 14:48:00,44.3,39.8,29.89,NE,50,2.0,4.0,84,0.00,,OVC080,0.01,VWS V14.00,2013-12-02 19:48:00,
2013-12-02 14:53:00,44.0,39.5,29.89,NE,51,1.0,4.0,84,0.00,,OVC080,0.01,VWS V14.00,2013-12-02 19:53:00,
2013-12-02 14:58:00,44.1,39.6,29.89,NE,40,2.0,3.0,84,0.00,,OVC080,0.01,VWS V14.00,2013-12-02 19:58:00,
2013-12-02 15:03:00,44.1,39.6,29.89,NW,313,2.0,3.0,84,0.00,,BKN085,0.01,VWS V14.00,2013-12-02 20:03:00,
2013-12-02 15:08:00,44.1,39.6,29.90,NE,35,0.0,1.0,84,0.00,,BKN085,0.01,VWS V14.00,2013-12-02 20:08:00,
2013-12-02 15:13:00,44.4,39.9,29.90,ENE,69,0.0,3.0,84,0.00,,BKN085,0.01,VWS V14.00,2013-12-02 20:13:00,
2013-12-02 15:18:00,44.2,39.1,29.90,ENE,75,0.0,2.0,82,0.00,,BKN085,0.01,VWS V14.00,2013-12-02 20:18:00,
2013-12-02 15:23:00,44.1,38.7,29.90,ENE,58,0.0,3.0,81,0.00,,BKN085,0.01,VWS V14.00,2013-12-02 20:23:00,
2013-12-02 15:28:00,44.1,39.0,29.91,ENE,71,0.0,0.0,82,0.00,,BKN085,0.01,VWS V14.00,2013-12-02 20:28:00,
2013-12-02 15:33:00,44.7,39.5,29.91,ENE,71,0.0,0.0,82,0.00,,BKN085,0.01,VWS V14.00,2013-12-02 20:33:00,
2013-12-02 15:38:00,44.9,39.1,29.92,ENE,71,0.0,0.0,80,0.00,,BKN085,0.01,VWS V14.00,2013-12-02 20:38:00,
2013-12-02 15:43:00,44.3,37.9,29.91,ENE,71,0.0,0.0,78,0.00,,BKN085,0.01,VWS V14.00,2013-12-02 20:43:00,
2013-12-02 15:48:00,43.8,38.0,29.91,East,92,0.0,0.0,80,0.00,,BKN085,0.01,VWS V14.00,2013-12-02 20:48:00,
2013-12-02 15:53:00,43.8,39.0,29.92,East,92,0.0,0.0,83,0.00,,BKN085,0.01,VWS V14.00,2013-12-02 20:53:00,
2013-12-02 15:58:00,43.5,38.7,29.92,East,92,0.0,0.0,83,0.00,,BKN085,0.01,VWS V14.00,2013-12-02 20:58:00,
2013-12-02 16:03:00,43.4,38.6,29.92,East,92,0.0,0.0,83,0.00,,BKN050,0.01,VWS V14.00,2013-12-02 21:03:00,
2013-12-02 16:08:00,42.6,37.8,29.92,East,92,0.0,0.0,83,0.00,,BKN050,0.01,VWS V14.00,2013-12-02 21:08:00,
2013-12-02 16:13:00,41.7,36.9,29.91,East,92,0.0,0.0,83,0.00,,BKN050,0.01,VWS V14.00,2013-12-02 21:13:00,
2013-12-02 16:18:00,41.0,37.1,29.91,East,92,0.0,0.0,86,0.00,,BKN050,0.01,VWS V14.00,2013-12-02 21:18:00,
2013-12-02 16:23:00,40.4,36.8,29.91,East,93,0.0,0.0,87,0.00,,BKN050,0.01,VWS V14.00,2013-12-02 21:23:00,
2013-12-02 16:28:00,39.8,36.5,29.91,East,92,0.0,0.0,88,0.00,,BKN050,0.01,VWS V14.00,2013-12-02 21:28:00,
2013-12-02 16:33:00,39.5,36.5,29.91,East,93,0.0,0.0,89,0.00,,BKN050,0.01,VWS V14.00,2013-12-02 21:33:00,
2013-12-02 16:38:00,39.0,36.0,29.91,East,92,0.0,0.0,89,0.00,,BKN050,0.01,VWS V14.00,2013-12-02 21:38:00,
2013-12-02 16:43:00,38.6,35.6,29.91,East,92,0.0,0.0,89,0.00,,BKN050,0.01,VWS V14.00,2013-12-02 21:43:00,
2013-12-02 16:48:00,38.2,35.5,29.91,East,92,0.0,0.0,90,0.00,,BKN050,0.01,VWS V14.00,2013-12-02 21:48:00,
2013-12-02 16:53:00,37.9,35.2,29.91,East,92,0.0,0.0,90,0.00,,BKN050,0.01,VWS V14.00,2013-12-02 21:53:00,
2013-12-02 16:58:00,37.5,35.1,29.90,East,92,0.0,0.0,91,0.00,,BKN050,0.01,VWS V14.00,2013-12-02 21:58:00,
2013-12-02 17:03:00,37.2,35.1,29.90,NNE,28,0.0,0.0,92,0.00,,CLR,0.01,VWS V14.00,2013-12-02 22:03:00,
2013-12-02 17:08:00,37.1,35.3,29.91,NNE,28,0.0,0.0,93,0.00,,CLR,0.01,VWS V14.00,2013-12-02 22:08:00,
2013-12-02 17:13:00,36.8,35.0,29.91,NNE,28,0.0,0.0,93,0.00,,CLR,0.01,VWS V14.00,2013-12-02 22:13:00,
2013-12-02 17:18:00,36.8,35.0,29.90,NNE,28,0.0,0.0,93,0.00,,CLR,0.01,VWS V14.00,2013-12-02 22:18:00,
2013-12-02 17:23:00,36.6,34.8,29.90,NNE,28,0.0,0.0,93,0.00,,CLR,0.01,VWS V14.00,2013-12-02 22:23:00,
2013-12-02 17:28:00,36.3,34.5,29.90,NNE,28,0.0,0.0,93,0.00,,CLR,0.01,VWS V14.00,2013-12-02 22:28:00,
2013-12-02 17:33:00,36.2,34.6,29.91,NNE,28,0.0,0.0,94,0.00,,CLR,0.01,VWS V14.00,2013-12-02 22:33:00,
2013-12-02 17:38:00,36.0,34.4,29.91,NNE,28,0.0,0.0,94,0.00,,CLR,0.01,VWS V14.00,2013-12-02 22:38:00,
2013-12-02 17:43:00,35.7,34.2,29.91,NNE,28,0.0,0.0,94,0.00,,CLR,0.01,VWS V14.00,2013-12-02 22:43:00,
2013-12-02 17:48:00,35.4,33.8,29.91,NNE,28,0.0,0.0,94,0.00,,CLR,0.01,VWS V14.00,2013-12-02 22:48:00,
2013-12-02 17:53:00,35.2,33.7,29.91,NNE,28,0.0,0.0,94,0.00,,CLR,0.01,VWS V14.00,2013-12-02 22:53:00,
2013-12-02 17:58:00,35.1,33.8,29.91,NNE,28,0.0,0.0,95,0.00,,CLR,0.01,VWS V14.00,2013-12-02 22:58:00,
2013-12-02 18:03:00,34.9,33.6,29.91,NNE,28,0.0,0.0,95,0.00,,CLR,0.01,VWS V14.00,2013-12-02 23:03:00,
2013-12-02 18:08:00,34.7,33.4,29.91,NNE,28,0.0,0.0,95,0.00,,CLR,0.01,VWS V14.00,2013-12-02 23:08:00,
2013-12-02 18:13:00,34.5,33.2,29.91,NNE,28,0.0,0.0,95,0.00,,CLR,0.01,VWS V14.00,2013-12-02 23:13:00,
2013-12-02 18:18:00,34.4,33.1,29.91,NNE,28,0.0,0.0,95,0.00,,CLR,0.01,VWS V14.00,2013-12-02 23:18:00,
2013-12-02 18:23:00,34.4,33.4,29.91,NNE,28,0.0,0.0,96,0.00,,CLR,0.01,VWS V14.00,2013-12-02 23:23:00,
2013-12-02 18:28:00,34.1,32.8,29.91,NNE,28,0.0,0.0,95,0.00,,CLR,0.01,VWS V14.00,2013-12-02 23:28:00,
2013-12-02 18:33:00,34.0,32.7,29.91,NNE,28,0.0,0.0,95,0.00,,CLR,0.01,VWS V14.00,2013-12-02 23:33:00,
2013-12-02 18:38:00,34.1,33.1,29.91,NNE,28,0.0,0.0,96,0.00,,CLR,0.01,VWS V14.00,2013-12-02 23:38:00,
2013-12-02 18:43:00,33.9,32.9,29.91,NNE,28,0.0,0.0,96,0.00,,CLR,0.01,VWS V14.00,2013-12-02 23:43:00,
2013-12-02 18:48:00,33.9,32.9,29.91,NNE,28,0.0,0.0,96,0.00,,,0.01,VWS V14.00,2013-12-02 23:48:00,
2013-12-02 18:53:00,33.7,32.7,29.91,NNE,28,0.0,0.0,96,0.00,,,0.01,VWS V14.00,2013-12-02 23:53:00,
2013-12-02 18:58:00,33.7,32.7,29.91,NNE,28,0.0,0.0,96,0.00,,,0.01,VWS V14.00,2013-12-02 23:58:00,
2013-12-02 19:03:00,33.7,32.7,29.91,NNE,28,0.0,0.0,96,0.00,,,0.01,VWS V14.00,2013-12-03 00:03:00,
2013-12-02 19:08:00,33.7,32.7,29.91,NNE,28,0.0,0.0,96,0.00,,,0.01,VWS V14.00,2013-12-03 00:08:00,
2013-12-02 19:13:00,33.7,32.7,29.91,NNE,28,0.0,0.0,96,0.00,,,0.01,VWS V14.00,2013-12-03 00:13:00,
2013-12-02 19:18:00,33.5,32.5,29.91,NNE,28,0.0,0.0,96,0.00,,,0.01,VWS V14.00,2013-12-03 00:18:00,
2013-12-02 19:23:00,33.3,32.3,29.91,NNE,28,0.0,0.0,96,0.00,,,0.01,VWS V14.00,2013-12-03 00:23:00,
2013-12-02 19:28:00,33.4,32.6,29.91,NNE,28,0.0,0.0,97,0.00,,,0.01,VWS V14.00,2013-12-03 00:28:00,
2013-12-02 19:33:00,33.3,32.3,29.91,NNE,28,0.0,0.0,96,0.00,,,0.01,VWS V14.00,2013-12-03 00:33:00,
2013-12-02 19:38:00,33.2,32.2,29.91,NNE,28,0.0,0.0,96,0.00,,,0.01,VWS V14.00,2013-12-03 00:38:00,
2013-12-02 19:43:00,33.1,32.3,29.91,NNE,28,0.0,0.0,97,0.00,,,0.01,VWS V14.00,2013-12-03 00:43:00,
2013-12-02 19:48:00,33.0,32.2,29.91,NNE,28,0.0,0.0,97,0.00,,,0.01,VWS V14.00,2013-12-03 00:48:00,
2013-12-02 19:53:00,33.1,32.3,29.91,NNE,28,0.0,1.0,97,0.00,,,0.01,VWS V14.00,2013-12-03 00:53:00,
2013-12-02 19:58:00,33.2,32.4,29.91,NNE,28,0.0,0.0,97,0.00,,,0.01,VWS V14.00,2013-12-03 00:58:00,
2013-12-02 20:03:00,33.2,32.4,29.91,NNE,28,0.0,0.0,97,0.00,,,0.01,VWS V14.00,2013-12-03 01:03:00,
2013-12-02 20:08:00,33.1,32.3,29.91,NNE,28,0.0,0.0,97,0.00,,,0.01,VWS V14.00,2013-12-03 01:08:00,
2013-12-02 20:12:00,33.0,32.2,29.91,NNE,28,0.0,0.0,97,0.00,,,0.01,VWS V14.00,2013-12-03 01:12:00,
2013-12-02 20:17:00,32.7,31.9,29.91,NNE,28,0.0,0.0,97,0.00,,,0.01,VWS V14.00,2013-12-03 01:17:00,
2013-12-02 20:22:00,32.6,31.8,29.92,NNE,28,0.0,0.0,97,0.00,,,0.01,VWS V14.00,2013-12-03 01:22:00,
2013-12-02 20:27:00,32.5,31.7,29.92,NNE,28,0.0,0.0,97,0.00,,,0.01,VWS V14.00,2013-12-03 01:27:00,
2013-12-02 20:32:00,32.4,31.6,29.92,NNE,28,0.0,0.0,97,0.00,,,0.01,VWS V14.00,2013-12-03 01:32:00,
2013-12-02 20:37:00,32.3,31.5,29.92,NNE,28,0.0,0.0,97,0.00,,,0.01,VWS V14.00,2013-12-03 01:37:00,
2013-12-02 20:42:00,32.2,31.5,29.92,NNE,28,0.0,0.0,97,0.00,,,0.01,VWS V14.00,2013-12-03 01:42:00,
2013-12-02 20:47:00,32.2,31.5,29.92,NNE,28,0.0,0.0,97,0.00,,,0.01,VWS V14.00,2013-12-03 01:47:00,
2013-12-02 20:52:00,32.1,31.4,29.92,NNE,28,0.0,0.0,97,0.00,,,0.01,VWS V14.00,2013-12-03 01:52:00,
2013-12-02 20:57:00,32.1,31.4,29.92,NNE,28,0.0,0.0,97,0.00,,,0.01,VWS V14.00,2013-12-03 01:57:00,
2013-12-02 21:02:00,31.9,31.1,29.92,NNE,28,0.0,0.0,97,0.00,,,0.01,VWS V14.00,2013-12-03 02:02:00,
2013-12-02 21:07:00,31.8,31.0,29.92,NNE,28,0.0,0.0,97,0.00,,,0.01,VWS V14.00,2013-12-03 02:07:00,
2013-12-02 21:12:00,31.8,31.0,29.92,NNE,28,0.0,0.0,97,0.00,,,0.01,VWS V14.00,2013-12-03 02:12:00,
2013-12-02 21:17:00,31.8,31.0,29.92,NNE,28,0.0,0.0,97,0.00,,,0.01,VWS V14.00,2013-12-03 02:17:00,
2013-12-02 21:22:00,31.7,31.0,29.92,NNE,28,0.0,0.0,97,0.00,,,0.01,VWS V14.00,2013-12-03 02:22:00,
2013-12-02 21:27:00,31.6,30.9,29.92,NNE,28,0.0,0.0,97,0.00,,,0.01,VWS V14.00,2013-12-03 02:27:00,
2013-12-02 21:32:00,31.6,30.9,29.92,NNE,28,0.0,0.0,97,0.00,,,0.01,VWS V14.00,2013-12-03 02:32:00,
2013-12-02 21:37:00,31.6,30.9,29.92,NNE,28,0.0,0.0,97,0.00,,,0.01,VWS V14.00,2013-12-03 02:37:00,
2013-12-02 21:42:00,31.7,31.0,29.91,NNE,28,0.0,0.0,97,0.00,,,0.01,VWS V14.00,2013-12-03 02:42:00,
2013-12-02 21:47:00,31.8,31.3,29.91,NNE,28,0.0,0.0,98,0.00,,,0.01,VWS V14.00,2013-12-03 02:47:00,
2013-12-02 21:52:00,31.8,31.3,29.91,NNE,28,0.0,0.0,98,0.00,,,0.01,VWS V14.00,2013-12-03 02:52:00,
2013-12-02 21:57:00,31.9,31.4,29.91,NNE,28,0.0,0.0,98,0.00,,,0.01,VWS V14.00,2013-12-03 02:57:00,
2013-12-02 22:02:00,32.2,31.7,29.91,NNE,28,0.0,0.0,98,0.00,,,0.01,VWS V14.00,2013-12-03 03:02:00,
2013-12-02 22:07:00,32.3,31.8,29.90,NE,54,0.0,0.0,98,0.00,,,0.01,VWS V14.00,2013-12-03 03:07:00,
2013-12-02 22:12:00,32.5,32.0,29.91,NE,41,0.0,1.0,98,0.00,,,0.01,VWS V14.00,2013-12-03 03:12:00,
2013-12-02 22:17:00,32.6,32.1,29.91,NNE,12,0.0,0.0,98,0.00,,,0.01,VWS V14.00,2013-12-03 03:17:00,
2013-12-02 22:22:00,32.6,32.1,29.91,NNE,17,0.0,0.0,98,0.00,,,0.01,VWS V14.00,2013-12-03 03:22:00,
2013-12-02 22:27:00,32.4,31.9,29.91,NNE,24,0.0,0.0,98,0.00,,,0.01,VWS V14.00,2013-12-03 03:27:00,
2013-12-02 22:32:00,32.4,31.9,29.90,NE,38,0.0,1.0,98,0.00,,,0.01,VWS V14.00,2013-12-03 03:32:00,
2013-12-02 22:37:00,32.4,31.9,29.90,NE,38,0.0,1.0,98,0.00,,,0.01,VWS V14.00,2013-12-03 03:37:00,
2013-12-02 22:42:00,32.4,31.9,29.90,NE,38,0.0,1.0,98,0.00,,,0.01,VWS V14.00,2013-12-03 03:42:00,
2013-12-02 22:47:00,32.6,32.1,29.90,NE,38,0.0,0.0,98,0.00,,,0.01,VWS V14.00,2013-12-03 03:47:00,
2013-12-02 22:52:00,32.7,32.2,29.90,NE,38,0.0,0.0,98,0.00,,,0.01,VWS V14.00,2013-12-03 03:52:00,
2013-12-02 22:57:00,32.8,32.3,29.90,NE,38,0.0,1.0,98,0.00,,,0.01,VWS V14.00,2013-12-03 03:57:00,
2013-12-02 23:02:00,33.1,32.6,29.91,NE,47,0.0,0.0,98,0.00,,,0.01,VWS V14.00,2013-12-03 04:02:00,
2013-12-02 23:07:00,32.8,32.3,29.90,NNE,28,0.0,0.0,98,0.00,,,0.01,VWS V14.00,2013-12-03 04:07:00,
2013-12-02 23:12:00,32.9,32.4,29.90,NNE,31,0.0,0.0,98,0.00,,,0.01,VWS V14.00,2013-12-03 04:12:00,
2013-12-02 23:17:00,32.8,32.3,29.89,NNE,31,0.0,0.0,98,0.00,,,0.01,VWS V14.00,2013-12-03 04:17:00,
2013-12-02 23:22:00,32.6,32.1,29.89,NNE,32,0.0,0.0,98,0.00,,,0.01,VWS V14.00,2013-12-03 04:22:00,
2013-12-02 23:27:00,32.6,32.1,29.89,NNE,13,0.0,0.0,98,0.00,,,0.01,VWS V14.00,2013-12-03 04:27:00,
2013-12-02 23:32:00,32.7,32.2,29.89,NNE,13,0.0,0.0,98,0.00,,,0.01,VWS V14.00,2013-12-03 04:32:00,
2013-12-02 23:37:00,32.8,32.3,29.89,NNE,24,0.0,0.0,98,0.00,,,0.01,VWS V14.00,2013-12-03 04:37:00,
2013-12-02 23:42:00,32.7,32.2,29.88,NNE,24,0.0,0.0,98,0.00,,,0.01,VWS V14.00,2013-12-03 04:42:00,
2013-12-02 23:47:00,32.7,32.2,29.89,NE,39,0.0,0.0,98,0.00,,,0.01,VWS V14.00,2013-12-03 04:47:00,
2013-12-02 23:52:00,32.7,32.2,29.89,NE,38,0.0,0.0,98,0.00,,,0.01,VWS V14.00,2013-12-03 04:52:00,
2013-12-02 23:57:00,32.7,32.2,29.88,NNE,31,0.0,0.0,98,0.00,,,0.01,VWS V14.00,2013-12-03 04:57:00,